,,Stat5,,Stat1,,Stat2,,Stat3,,Stat4,,Wind1,,Wind1,
time,status,PA1M_AVG,status,PR1M_SUM,status,RH1M_AVG,status,SR1M_AVG,status,TA1M_AVG,status,W1dAve1m,status,W1sAve1m,
2000-06-21, 00:00:00,VALID,918.036,VALID,0,VALID,95.0537,VALID,-0.0169808,VALID,20.7435,VALID,69,VALID,0.839949,
2000-06-21, 00:01:00,VALID,918.037,VALID,0,VALID,95.0804,VALID,0,VALID,20.7373,VALID,90,VALID,0.789274,
2000-06-21, 00:02:00,VALID,918.032,VALID,0,VALID,95.2241,VALID,-0.0679233,VALID,20.7468,VALID,69,VALID,0.664063,
2000-06-21, 00:03:01,VALID,918.043,VALID,0,VALID,95.0626,VALID,-0.0169808,VALID,20.7177,VALID,64,VALID,0.898643,
2000-06-21, 00:04:00,VALID,918.041,VALID,0,VALID,95.603,VALID,-0.0169808,VALID,20.7112,VALID,95,VALID,1.26736,
2000-06-21, 00:05:00,VALID,918.044,VALID,0,VALID,95.5624,VALID,-0.0339617,VALID,20.7013,VALID,68,VALID,1.40845,
2000-06-21, 00:06:01,VALID,918.078,VALID,0,VALID,95.6069,VALID,-0.0339617,VALID,20.6692,VALID,73,VALID,1.44067,
2000-06-21, 00:07:00,VALID,918.091,VALID,0,VALID,95.954,VALID,-0.0339617,VALID,20.6501,VALID,82,VALID,1.08491,
2000-06-21, 00:08:01,VALID,918.116,VALID,0,VALID,96.0061,VALID,-0.0169808,VALID,20.6431,VALID,82,VALID,1.3546,
2000-06-21, 00:09:00,VALID,918.106,VALID,0,VALID,96.221,VALID,-0.0169808,VALID,20.6469,VALID,94,VALID,0.548142,
2000-06-21, 00:10:00,VALID,918.108,VALID,0,VALID,96.2134,VALID,-0.0169808,VALID,20.656,VALID,71,VALID,0.801883,
2000-06-21, 00:11:00,VALID,918.085,VALID,0,VALID,95.8815,VALID,-0.0169808,VALID,20.6369,VALID,46,VALID,1.01808,
2000-06-21, 00:12:00,VALID,918.058,VALID,0,VALID,95.7849,VALID,-0.0169808,VALID,20.6339,VALID,76,VALID,0.700521,
2000-06-21, 00:13:01,VALID,918.021,VALID,0,VALID,95.8803,VALID,-0.0339617,VALID,20.6213,VALID,75,VALID,0.783854,
2000-06-21, 00:14:00,VALID,917.991,VALID,0,VALID,95.8421,VALID,0,VALID,20.6046,VALID,58,VALID,0.75217,
2000-06-21, 00:15:00,VALID,917.959,VALID,0,VALID,95.9629,VALID,-0.0509425,VALID,20.5954,VALID,68,VALID,0.835938,
2000-06-21, 00:16:00,VALID,917.947,VALID,0,VALID,95.7188,VALID,-0.0339617,VALID,20.5855,VALID,24,VALID,0.796658,
2000-06-21, 00:17:01,VALID,917.935,VALID,0,VALID,95.7467,VALID,-0.0339617,VALID,20.6145,VALID,83,VALID,0.762153,
2000-06-21, 00:18:01,VALID,917.927,VALID,0,VALID,96.0049,VALID,-0.0339617,VALID,20.6372,VALID,87,VALID,0.664463,
2000-06-21, 00:19:00,VALID,917.917,VALID,0,VALID,96.029,VALID,0,VALID,20.6471,VALID,71,VALID,0.614732,
2000-06-21, 00:20:00,VALID,917.906,VALID,0,VALID,96.0163,VALID,-0.0849042,VALID,20.66,VALID,105,VALID,0.311655,
2000-06-21, 00:21:00,VALID,917.896,VALID,0,VALID,96.0481,VALID,-0.0509425,VALID,20.6595,VALID,78,VALID,0.199107,
2000-06-21, 00:22:00,VALID,917.882,VALID,0,VALID,95.8269,VALID,-0.0679233,VALID,20.6412,VALID,77,VALID,0.357856,
2000-06-21, 00:23:00,VALID,917.864,VALID,0,VALID,95.9871,VALID,-0.0849042,VALID,20.6474,VALID,78,VALID,0.242989,
2000-06-21, 00:24:00,VALID,917.854,VALID,0,VALID,96.0163,VALID,-0.0169808,VALID,20.6471,VALID,80,VALID,0.45625,
2000-06-21, 00:25:01,VALID,917.832,VALID,0,VALID,95.8141,VALID,0,VALID,20.6237,VALID,59,VALID,0.449958,
2000-06-21, 00:26:00,VALID,917.821,VALID,0.2,VALID,95.851,VALID,-0.0169808,VALID,20.6041,VALID,52,VALID,0.462054,
2000-06-21, 00:27:00,VALID,917.805,VALID,0,VALID,95.9489,VALID,-0.0169808,VALID,20.5909,VALID,33,VALID,0.315104,
2000-06-21, 00:28:01,VALID,917.794,VALID,0,VALID,96.2821,VALID,0,VALID,20.6036,VALID,57,VALID,0.0562066,
2000-06-21, 00:29:00,VALID,917.788,VALID,0,VALID,96.4105,VALID,-0.0169808,VALID,20.6105,VALID,68,VALID,0,
2000-06-21, 00:30:00,VALID,917.772,VALID,0,VALID,96.2605,VALID,0,VALID,20.6105,VALID,62,VALID,0,
2000-06-21, 00:31:00,VALID,917.778,VALID,0,VALID,96.5364,VALID,0,VALID,20.656,VALID,69,VALID,0.135634,
2000-06-21, 00:32:01,VALID,917.791,VALID,0,VALID,96.3368,VALID,0,VALID,20.6396,VALID,71,VALID,0.269965,
2000-06-21, 00:33:01,VALID,917.778,VALID,0,VALID,96.2948,VALID,0.0169808,VALID,20.6294,VALID,83,VALID,0.417668,
2000-06-21, 00:34:00,VALID,917.755,VALID,0,VALID,96.5987,VALID,0,VALID,20.6595,VALID,93,VALID,0.581027,
2000-06-21, 00:35:00,VALID,917.738,VALID,0,VALID,96.8441,VALID,0,VALID,20.6617,VALID,92,VALID,0.474873,
2000-06-21, 00:36:00,VALID,917.693,VALID,0,VALID,96.895,VALID,0,VALID,20.6918,VALID,85,VALID,0.48192,
2000-06-21, 00:37:01,VALID,917.651,VALID,0,VALID,96.7106,VALID,0,VALID,20.6722,VALID,89,VALID,0.495226,
2000-06-21, 00:38:00,VALID,917.613,VALID,0,VALID,96.7818,VALID,-0.0169808,VALID,20.6749,VALID,102,VALID,0.464944,
2000-06-21, 00:39:00,VALID,917.562,VALID,0.2,VALID,96.7195,VALID,0,VALID,20.6725,VALID,95,VALID,0.560491,
2000-06-21, 00:40:01,VALID,917.535,VALID,0,VALID,96.5987,VALID,0.0169808,VALID,20.6456,VALID,90,VALID,0.201858,
2000-06-21, 00:41:01,VALID,917.51,VALID,0,VALID,96.558,VALID,0,VALID,20.6294,VALID,90,VALID,0,
2000-06-21, 00:42:00,VALID,917.497,VALID,0,VALID,96.3686,VALID,0,VALID,20.6073,VALID,89,VALID,0,
2000-06-21, 00:43:01,VALID,917.481,VALID,0,VALID,96.4067,VALID,0,VALID,20.5912,VALID,89,VALID,0,
2000-06-21, 00:44:00,VALID,917.455,VALID,0,VALID,96.6636,VALID,-0.0169808,VALID,20.6208,VALID,89,VALID,0,
2000-06-21, 00:45:00,VALID,917.443,VALID,0,VALID,96.5072,VALID,0,VALID,20.6205,VALID,89,VALID,0,
2000-06-21, 00:46:00,VALID,917.429,VALID,0,VALID,96.4677,VALID,0,VALID,20.6237,VALID,97,VALID,0,
2000-06-21, 00:47:01,VALID,917.426,VALID,0,VALID,96.1409,VALID,0,VALID,20.5879,VALID,107,VALID,0,
2000-06-21, 00:48:01,VALID,917.422,VALID,0,VALID,96.1053,VALID,0,VALID,20.5742,VALID,130,VALID,0,
2000-06-21, 00:49:00,VALID,917.441,VALID,0,VALID,96.319,VALID,0,VALID,20.5912,VALID,140,VALID,0,
2000-06-21, 00:50:00,VALID,917.463,VALID,0,VALID,96.221,VALID,0,VALID,20.5879,VALID,159,VALID,0,
2000-06-21, 00:51:00,VALID,917.479,VALID,0.2,VALID,96.1079,VALID,0,VALID,20.5524,VALID,176,VALID,0,
2000-06-21, 00:52:00,VALID,917.509,VALID,0,VALID,96.2274,VALID,0,VALID,20.5166,VALID,177,VALID,0,
2000-06-21, 00:53:01,VALID,917.538,VALID,0,VALID,96.3864,VALID,0,VALID,20.4875,VALID,179,VALID,0,
2000-06-21, 00:54:00,VALID,917.581,VALID,0,VALID,96.4932,VALID,0.0169808,VALID,20.4498,VALID,172,VALID,0,
2000-06-21, 00:55:01,VALID,917.614,VALID,0,VALID,96.5949,VALID,-0.0169808,VALID,20.4003,VALID,170,VALID,0,
2000-06-21, 00:56:00,VALID,917.635,VALID,0,VALID,96.7538,VALID,-0.0169808,VALID,20.3623,VALID,164,VALID,0,
2000-06-21, 00:57:01,VALID,917.647,VALID,0,VALID,97.0247,VALID,0,VALID,20.3292,VALID,151,VALID,0,
2000-06-21, 00:58:01,VALID,917.636,VALID,0,VALID,97.3286,VALID,0,VALID,20.3329,VALID,139,VALID,0.208116,
2000-06-21, 00:59:01,VALID,917.641,VALID,0,VALID,97.3706,VALID,0,VALID,20.317,VALID,123,VALID,0.721137,
2000-06-21, 01:00:01,VALID,917.626,VALID,0,VALID,97.4303,VALID,0.0169808,VALID,20.2837,VALID,113,VALID,0.626028,
2000-06-21, 01:01:01,VALID,917.615,VALID,0,VALID,97.6185,VALID,0,VALID,20.3103,VALID,113,VALID,0.663194,
2000-06-21, 01:02:01,VALID,917.61,VALID,0,VALID,97.6529,VALID,0.0169808,VALID,20.3101,VALID,112,VALID,0.750434,
2000-06-21, 01:03:01,VALID,917.591,VALID,0,VALID,97.6058,VALID,-0.0169808,VALID,20.2942,VALID,108,VALID,0.500801,
2000-06-21, 01:04:01,VALID,917.594,VALID,0.2,VALID,97.602,VALID,-0.0169808,VALID,20.2785,VALID,98,VALID,0.65625,
2000-06-21, 01:05:01,VALID,917.598,VALID,0,VALID,97.6847,VALID,-0.0169808,VALID,20.2877,VALID,91,VALID,0.855785,
2000-06-21, 01:06:01,VALID,917.607,VALID,0,VALID,97.6808,VALID,0,VALID,20.3078,VALID,80,VALID,0.911161,
2000-06-21, 01:07:01,VALID,917.632,VALID,0,VALID,97.6541,VALID,-0.0169808,VALID,20.3108,VALID,77,VALID,1.03103,
2000-06-21, 01:08:01,VALID,917.647,VALID,0,VALID,97.7406,VALID,-0.0169808,VALID,20.3399,VALID,96,VALID,0.984175,
2000-06-21, 01:09:01,VALID,917.664,VALID,0,VALID,97.6363,VALID,-0.0339617,VALID,20.3334,VALID,92,VALID,1.07768,
2000-06-21, 01:10:01,VALID,917.673,VALID,0,VALID,97.6249,VALID,-0.0169808,VALID,20.3498,VALID,89,VALID,1.0663,
2000-06-21, 01:11:01,VALID,917.69,VALID,0,VALID,97.6694,VALID,0,VALID,20.3396,VALID,86,VALID,0.790402,
2000-06-21, 01:12:01,VALID,917.701,VALID,0,VALID,97.6885,VALID,0,VALID,20.3458,VALID,85,VALID,1.05382,
2000-06-21, 01:13:01,VALID,917.737,VALID,0,VALID,97.6707,VALID,0,VALID,20.3369,VALID,84,VALID,1.09484,
2000-06-21, 01:14:01,VALID,917.773,VALID,0,VALID,97.677,VALID,-0.0169808,VALID,20.3235,VALID,84,VALID,1.27127,
2000-06-21, 01:15:01,VALID,917.796,VALID,0,VALID,97.8449,VALID,0,VALID,20.3466,VALID,98,VALID,0.942434,
2000-06-21, 01:16:01,VALID,917.826,VALID,0,VALID,97.8258,VALID,-0.0169808,VALID,20.3334,VALID,102,VALID,0.89822,
2000-06-21, 01:17:01,VALID,917.84,VALID,0,VALID,97.8703,VALID,-0.0169808,VALID,20.3429,VALID,109,VALID,0.906467,
2000-06-21, 01:18:00,VALID,917.868,VALID,0,VALID,97.7788,VALID,0,VALID,20.3237,VALID,113,VALID,1.04387,
2000-06-21, 01:19:00,VALID,917.903,VALID,0,VALID,97.794,VALID,-0.0169808,VALID,20.3009,VALID,122,VALID,1.08013,
2000-06-21, 01:20:00,VALID,917.925,VALID,0,VALID,97.7902,VALID,0,VALID,20.2974,VALID,114,VALID,1.0133,
2000-06-21, 01:21:00,VALID,917.937,VALID,0,VALID,97.8462,VALID,-0.0169808,VALID,20.3106,VALID,113,VALID,1.24107,
2000-06-21, 01:22:00,VALID,917.96,VALID,0.2,VALID,97.8169,VALID,-0.0339617,VALID,20.3175,VALID,118,VALID,1.3954,
2000-06-21, 01:23:00,VALID,917.977,VALID,0,VALID,97.7533,VALID,-0.0169808,VALID,20.3205,VALID,101,VALID,1.61118,
2000-06-21, 01:24:00,VALID,917.999,VALID,0,VALID,97.6402,VALID,0,VALID,20.3237,VALID,117,VALID,1.45692,
2000-06-21, 01:25:00,VALID,918.025,VALID,0,VALID,97.588,VALID,0,VALID,20.3394,VALID,119,VALID,1.56271,
2000-06-21, 01:26:00,VALID,918.013,VALID,0,VALID,97.5283,VALID,0.0169808,VALID,20.3426,VALID,122,VALID,1.32991,
2000-06-21, 01:27:00,VALID,918.026,VALID,0,VALID,97.4431,VALID,0.0169808,VALID,20.3394,VALID,111,VALID,1.40951,
2000-06-21, 01:28:00,VALID,918.016,VALID,0,VALID,97.382,VALID,0.0169808,VALID,20.3426,VALID,97,VALID,1.5957,
2000-06-21, 01:29:00,VALID,918.014,VALID,0.2,VALID,97.3515,VALID,0.0169808,VALID,20.3491,VALID,107,VALID,1.21137,
2000-06-21, 01:30:00,VALID,918.004,VALID,0,VALID,97.4062,VALID,0.0169808,VALID,20.3553,VALID,118,VALID,0.943668,
2000-06-21, 01:31:00,VALID,917.994,VALID,0,VALID,97.3312,VALID,0,VALID,20.3588,VALID,116,VALID,0.807726,
2000-06-21, 01:32:00,VALID,917.995,VALID,0,VALID,97.3439,VALID,0,VALID,20.3583,VALID,117,VALID,0.40625,
2000-06-21, 01:33:00,VALID,917.99,VALID,0,VALID,97.424,VALID,0.0169808,VALID,20.3712,VALID,128,VALID,0,
2000-06-21, 01:34:00,VALID,917.983,VALID,0,VALID,97.4837,VALID,0.0339617,VALID,20.3841,VALID,128,VALID,0,
2000-06-21, 01:35:00,VALID,917.968,VALID,0.2,VALID,97.5766,VALID,0,VALID,20.4005,VALID,128,VALID,0,
2000-06-21, 01:36:00,VALID,917.966,VALID,0,VALID,97.5219,VALID,0.0339617,VALID,20.4005,VALID,128,VALID,0,
2000-06-21, 01:37:00,VALID,917.958,VALID,0,VALID,97.4418,VALID,0.101885,VALID,20.3935,VALID,127,VALID,0,
2000-06-21, 01:38:00,VALID,917.943,VALID,0,VALID,97.4265,VALID,0.0679233,VALID,20.3935,VALID,126,VALID,0,
2000-06-21, 01:39:00,VALID,917.938,VALID,0,VALID,97.4748,VALID,0,VALID,20.4038,VALID,118,VALID,0,
2000-06-21, 01:40:00,VALID,917.933,VALID,0,VALID,97.3273,VALID,-0.0169808,VALID,20.3623,VALID,42,VALID,0.261402,
2000-06-21, 01:41:00,VALID,917.925,VALID,0.2,VALID,97.1887,VALID,-0.0509425,VALID,20.3638,VALID,4,VALID,0.257813,
2000-06-21, 01:42:00,VALID,917.921,VALID,0,VALID,97.2994,VALID,-0.0339617,VALID,20.3633,VALID,81,VALID,0.0842014,
2000-06-21, 01:43:00,VALID,917.905,VALID,0,VALID,97.4354,VALID,-0.0169808,VALID,20.369,VALID,96,VALID,0.0386285,
2000-06-21, 01:44:00,VALID,917.863,VALID,0,VALID,97.5473,VALID,-0.0169808,VALID,20.3854,VALID,96,VALID,0,
2000-06-21, 01:45:00,VALID,917.818,VALID,0.2,VALID,97.6491,VALID,-0.0679233,VALID,20.3951,VALID,96,VALID,0,
2000-06-21, 01:46:00,VALID,917.774,VALID,0,VALID,97.7482,VALID,-0.0509425,VALID,20.4244,VALID,109,VALID,0,
2000-06-21, 01:47:00,VALID,917.74,VALID,0,VALID,97.6503,VALID,-0.0849042,VALID,20.4152,VALID,119,VALID,0,
2000-06-21, 01:48:00,VALID,917.694,VALID,0,VALID,97.602,VALID,-0.0849042,VALID,20.3894,VALID,119,VALID,0,
2000-06-21, 01:49:00,VALID,917.673,VALID,0,VALID,97.5855,VALID,-0.0849042,VALID,20.373,VALID,119,VALID,0,
2000-06-21, 01:50:00,VALID,917.634,VALID,0.2,VALID,97.4291,VALID,-0.0849042,VALID,20.3608,VALID,135,VALID,0,
2000-06-21, 01:51:00,VALID,917.596,VALID,0,VALID,97.4431,VALID,-0.101885,VALID,20.3506,VALID,135,VALID,0.155804,
2000-06-21, 01:52:00,VALID,917.58,VALID,0,VALID,97.4354,VALID,-0.101885,VALID,20.3476,VALID,125,VALID,0.710938,
2000-06-21, 01:53:00,VALID,917.564,VALID,0,VALID,97.2841,VALID,-0.101885,VALID,20.3479,VALID,128,VALID,0.758013,
2000-06-21, 01:54:00,VALID,917.537,VALID,0,VALID,97.0641,VALID,-0.101885,VALID,20.321,VALID,126,VALID,0.56942,
2000-06-21, 01:55:00,VALID,917.542,VALID,0,VALID,97.1366,VALID,-0.0339617,VALID,20.3367,VALID,125,VALID,0.370988,
2000-06-21, 01:56:00,VALID,917.526,VALID,0.2,VALID,97.1137,VALID,0,VALID,20.3294,VALID,124,VALID,0.293304,
2000-06-21, 01:57:00,VALID,917.511,VALID,0,VALID,97.087,VALID,0.0169808,VALID,20.3135,VALID,119,VALID,0.458984,
2000-06-21, 01:58:00,VALID,917.502,VALID,0,VALID,96.956,VALID,0,VALID,20.2715,VALID,109,VALID,0.548828,
2000-06-21, 01:59:00,VALID,917.481,VALID,0,VALID,97.0819,VALID,0.0169808,VALID,20.2656,VALID,100,VALID,0.581814,
2000-06-21, 02:00:00,VALID,917.465,VALID,0,VALID,97.3032,VALID,0,VALID,20.2753,VALID,96,VALID,0.574836,
2000-06-21, 02:01:00,VALID,917.445,VALID,0,VALID,97.4036,VALID,0.0169808,VALID,20.275,VALID,96,VALID,0.539497,
2000-06-21, 02:02:00,VALID,917.411,VALID,0,VALID,97.3668,VALID,0.0169808,VALID,20.2624,VALID,96,VALID,0.238498,
2000-06-21, 02:03:00,VALID,917.404,VALID,0.2,VALID,97.4405,VALID,0,VALID,20.2723,VALID,96,VALID,0,
2000-06-21, 02:04:00,VALID,917.379,VALID,0,VALID,97.4901,VALID,0,VALID,20.2753,VALID,96,VALID,0,
2000-06-21, 02:05:00,VALID,917.356,VALID,0,VALID,97.5168,VALID,0,VALID,20.2715,VALID,96,VALID,0,
2000-06-21, 02:06:00,VALID,917.329,VALID,0,VALID,97.4342,VALID,-0.0169808,VALID,20.2494,VALID,116,VALID,0,
2000-06-21, 02:07:00,VALID,917.316,VALID,0,VALID,97.3273,VALID,-0.0169808,VALID,20.2368,VALID,136,VALID,0.0855035,
2000-06-21, 02:08:00,VALID,917.308,VALID,0,VALID,97.1786,VALID,0.0169808,VALID,20.1808,VALID,157,VALID,0.3123,
2000-06-21, 02:09:00,VALID,917.306,VALID,0,VALID,97.1875,VALID,0,VALID,20.1816,VALID,168,VALID,0.326562,
2000-06-21, 02:10:00,VALID,917.307,VALID,0.2,VALID,97.1697,VALID,-0.0509425,VALID,20.1729,VALID,168,VALID,0.414696,
2000-06-21, 02:11:00,VALID,917.305,VALID,0,VALID,97.2002,VALID,-0.0679233,VALID,20.1476,VALID,169,VALID,0.46808,
2000-06-21, 02:12:00,VALID,917.311,VALID,0,VALID,97.2727,VALID,-0.101885,VALID,20.1023,VALID,170,VALID,0.486762,
2000-06-21, 02:13:00,VALID,917.281,VALID,0,VALID,97.3769,VALID,-0.0849042,VALID,20.0827,VALID,170,VALID,0.527344,
2000-06-21, 02:14:00,VALID,917.282,VALID,0,VALID,97.5295,VALID,-0.0849042,VALID,20.0499,VALID,171,VALID,0.552951,
2000-06-21, 02:15:00,VALID,917.278,VALID,0,VALID,97.6516,VALID,-0.0849042,VALID,20.0347,VALID,172,VALID,0.635896,
2000-06-21, 02:16:00,VALID,917.263,VALID,0.2,VALID,97.7406,VALID,-0.0679233,VALID,20.0213,VALID,173,VALID,0.633681,
2000-06-21, 02:17:00,VALID,917.25,VALID,0,VALID,97.8004,VALID,-0.0849042,VALID,20.0116,VALID,170,VALID,0.661892,
2000-06-21, 02:18:00,VALID,917.226,VALID,0,VALID,97.8996,VALID,-0.0849042,VALID,19.992,VALID,177,VALID,0.754006,
2000-06-21, 02:19:00,VALID,917.212,VALID,0,VALID,97.9428,VALID,-0.0509425,VALID,20.0017,VALID,166,VALID,0.8375,
2000-06-21, 02:20:00,VALID,917.194,VALID,0,VALID,97.9631,VALID,-0.0509425,VALID,20.0148,VALID,168,VALID,0.813133,
2000-06-21, 02:21:00,VALID,917.166,VALID,0,VALID,97.9606,VALID,-0.0509425,VALID,20.0151,VALID,172,VALID,0.63817,
2000-06-21, 02:22:00,VALID,917.145,VALID,0.2,VALID,97.9962,VALID,-0.0849042,VALID,20.0116,VALID,175,VALID,0.47895,
2000-06-21, 02:23:00,VALID,917.13,VALID,0,VALID,98.075,VALID,-0.0509425,VALID,20.0081,VALID,166,VALID,0.35637,
2000-06-21, 02:24:00,VALID,917.112,VALID,0,VALID,98.1501,VALID,-0.0339617,VALID,20.0208,VALID,153,VALID,0.56942,
2000-06-21, 02:25:00,VALID,917.094,VALID,0,VALID,98.2162,VALID,-0.0339617,VALID,20.0265,VALID,155,VALID,0.49261,
2000-06-21, 02:26:00,VALID,917.084,VALID,0,VALID,98.2543,VALID,0.0339617,VALID,20.0163,VALID,144,VALID,0.43683,
2000-06-21, 02:27:00,VALID,917.081,VALID,0,VALID,98.3344,VALID,0.0509425,VALID,20.0292,VALID,140,VALID,0.240234,
2000-06-21, 02:28:00,VALID,917.073,VALID,0.2,VALID,98.3268,VALID,0.0679233,VALID,20.0255,VALID,141,VALID,0.481337,
2000-06-21, 02:29:00,VALID,917.064,VALID,0,VALID,98.3599,VALID,0.0849042,VALID,20.0158,VALID,152,VALID,0.16428,
2000-06-21, 02:30:00,VALID,917.042,VALID,0,VALID,98.4464,VALID,0.0849042,VALID,20.0387,VALID,147,VALID,0.26912,
2000-06-21, 02:31:00,VALID,917.041,VALID,0,VALID,98.4985,VALID,0.0339617,VALID,20.0357,VALID,132,VALID,0.33724,
2000-06-21, 02:32:00,VALID,917.019,VALID,0,VALID,98.5303,VALID,0.0169808,VALID,20.0419,VALID,121,VALID,0.475694,
2000-06-21, 02:33:00,VALID,917.006,VALID,0,VALID,98.5074,VALID,0.0339617,VALID,20.026,VALID,115,VALID,0.54387,
2000-06-21, 02:34:00,VALID,916.987,VALID,0.2,VALID,98.5405,VALID,0.0509425,VALID,20.0297,VALID,122,VALID,0.362723,
2000-06-21, 02:35:00,VALID,916.975,VALID,0,VALID,98.5761,VALID,0.0509425,VALID,20.026,VALID,120,VALID,0.151394,
2000-06-21, 02:36:00,VALID,916.955,VALID,0,VALID,98.6485,VALID,0,VALID,20.029,VALID,115,VALID,0,
2000-06-21, 02:37:00,VALID,916.938,VALID,0,VALID,98.7019,VALID,0.0679233,VALID,20.0583,VALID,116,VALID,0,
2000-06-21, 02:38:00,VALID,916.904,VALID,0,VALID,98.7007,VALID,0.0849042,VALID,20.0486,VALID,116,VALID,0,
2000-06-21, 02:39:00,VALID,916.895,VALID,0.2,VALID,98.7134,VALID,0.0169808,VALID,20.0451,VALID,116,VALID,0,
2000-06-21, 02:40:00,VALID,916.879,VALID,0,VALID,98.6816,VALID,0.0509425,VALID,20.0327,VALID,116,VALID,0,
2000-06-21, 02:41:00,VALID,916.882,VALID,0,VALID,98.7223,VALID,0.0339617,VALID,20.0332,VALID,116,VALID,0,
2000-06-21, 02:42:00,VALID,916.872,VALID,0,VALID,98.7401,VALID,0.0169808,VALID,20.023,VALID,113,VALID,0,
2000-06-21, 02:43:00,VALID,916.876,VALID,0,VALID,98.7452,VALID,0.0509425,VALID,20.023,VALID,111,VALID,0,
2000-06-21, 02:44:00,VALID,916.887,VALID,0,VALID,98.7592,VALID,0.0169808,VALID,20.0163,VALID,111,VALID,0,
2000-06-21, 02:45:00,VALID,916.894,VALID,0.2,VALID,98.7655,VALID,0.0509425,VALID,20.0168,VALID,111,VALID,0,
2000-06-21, 02:46:00,VALID,916.884,VALID,0,VALID,98.6752,VALID,0.0509425,VALID,19.9611,VALID,111,VALID,0,
2000-06-21, 02:47:00,VALID,916.885,VALID,0,VALID,98.6676,VALID,0.0339617,VALID,19.9587,VALID,111,VALID,0,
2000-06-21, 02:48:00,VALID,916.885,VALID,0,VALID,98.6333,VALID,0,VALID,19.9102,VALID,114,VALID,0,
2000-06-21, 02:49:00,VALID,916.894,VALID,0,VALID,98.6244,VALID,0.0509425,VALID,19.8938,VALID,111,VALID,0,
2000-06-21, 02:50:00,VALID,916.895,VALID,0,VALID,98.6091,VALID,0.0169808,VALID,19.8612,VALID,110,VALID,0,
2000-06-21, 02:51:00,VALID,916.899,VALID,0,VALID,98.6384,VALID,0,VALID,19.855,VALID,110,VALID,0,
2000-06-21, 02:52:00,VALID,916.892,VALID,0.2,VALID,98.6727,VALID,0.0169808,VALID,19.8518,VALID,123,VALID,0,
2000-06-21, 02:53:00,VALID,916.895,VALID,0,VALID,98.7019,VALID,0.0339617,VALID,19.8615,VALID,121,VALID,0,
2000-06-21, 02:54:00,VALID,916.893,VALID,0,VALID,98.6752,VALID,0.0339617,VALID,19.8588,VALID,122,VALID,0,
2000-06-21, 02:55:00,VALID,916.88,VALID,0,VALID,98.6524,VALID,-0.0509425,VALID,19.8593,VALID,121,VALID,0,
2000-06-21, 02:56:00,VALID,916.885,VALID,0,VALID,98.6651,VALID,-0.0679233,VALID,19.8632,VALID,117,VALID,0,
2000-06-21, 02:57:00,VALID,916.879,VALID,0,VALID,98.6282,VALID,-0.0509425,VALID,19.8501,VALID,103,VALID,0,
2000-06-21, 02:58:00,VALID,916.88,VALID,0,VALID,98.6663,VALID,-0.101885,VALID,19.8568,VALID,100,VALID,0,
2000-06-21, 02:59:00,VALID,916.882,VALID,0,VALID,98.6816,VALID,-0.0679233,VALID,19.8627,VALID,101,VALID,0,
2000-06-21, 03:00:00,VALID,916.88,VALID,0,VALID,98.6765,VALID,-0.0849042,VALID,19.8702,VALID,101,VALID,0,
2000-06-21, 03:01:00,VALID,916.871,VALID,0,VALID,98.674,VALID,-0.0679233,VALID,19.8662,VALID,101,VALID,0,
2000-06-21, 03:02:00,VALID,916.868,VALID,0.2,VALID,98.7159,VALID,-0.0509425,VALID,19.8692,VALID,101,VALID,0,
2000-06-21, 03:03:00,VALID,916.851,VALID,0,VALID,98.7439,VALID,-0.0679233,VALID,19.8826,VALID,101,VALID,0,
2000-06-21, 03:04:00,VALID,916.853,VALID,0,VALID,98.7426,VALID,-0.0339617,VALID,19.8759,VALID,101,VALID,0,
2000-06-21, 03:05:00,VALID,916.848,VALID,0,VALID,98.7681,VALID,-0.0679233,VALID,19.8821,VALID,101,VALID,0,
2000-06-21, 03:06:00,VALID,916.834,VALID,0,VALID,98.8088,VALID,-0.0849042,VALID,19.898,VALID,101,VALID,0,
2000-06-21, 03:07:00,VALID,916.841,VALID,0,VALID,98.8113,VALID,-0.0169808,VALID,19.9115,VALID,101,VALID,0,
2000-06-21, 03:08:00,VALID,916.836,VALID,0,VALID,98.8266,VALID,-0.0679233,VALID,19.9276,VALID,101,VALID,0,
2000-06-21, 03:09:00,VALID,916.827,VALID,0,VALID,98.7884,VALID,-0.0679233,VALID,19.9149,VALID,102,VALID,0,
2000-06-21, 03:10:00,VALID,916.815,VALID,0,VALID,98.7388,VALID,-0.0339617,VALID,19.8781,VALID,179,VALID,0,
2000-06-21, 03:11:00,VALID,916.799,VALID,0,VALID,98.7592,VALID,0,VALID,19.8652,VALID,179,VALID,0,
2000-06-21, 03:12:00,VALID,916.798,VALID,0.2,VALID,98.7732,VALID,0,VALID,19.8526,VALID,179,VALID,0,
2000-06-21, 03:13:00,VALID,916.781,VALID,0,VALID,98.7732,VALID,0,VALID,19.8294,VALID,179,VALID,0,
2000-06-21, 03:14:00,VALID,916.764,VALID,0,VALID,98.7808,VALID,-0.0169808,VALID,19.8267,VALID,179,VALID,0,
2000-06-21, 03:15:00,VALID,916.761,VALID,0,VALID,98.7604,VALID,-0.0169808,VALID,19.8106,VALID,183,VALID,0,
2000-06-21, 03:16:00,VALID,916.744,VALID,0,VALID,98.81,VALID,0,VALID,19.82,VALID,187,VALID,0,
2000-06-21, 03:17:00,VALID,916.743,VALID,0,VALID,98.8291,VALID,0,VALID,19.8297,VALID,176,VALID,0,
2000-06-21, 03:18:00,VALID,916.76,VALID,0,VALID,98.777,VALID,0,VALID,19.8009,VALID,166,VALID,0,
2000-06-21, 03:19:00,VALID,916.756,VALID,0.2,VALID,98.7465,VALID,-0.0169808,VALID,19.7817,VALID,180,VALID,0,
2000-06-21, 03:20:00,VALID,916.774,VALID,0,VALID,98.7986,VALID,0,VALID,19.7651,VALID,178,VALID,0,
2000-06-21, 03:21:00,VALID,916.775,VALID,0,VALID,98.7465,VALID,0,VALID,19.7489,VALID,168,VALID,0.70692,
2000-06-21, 03:22:00,VALID,916.783,VALID,0,VALID,98.7668,VALID,0,VALID,19.7231,VALID,168,VALID,0.786458,
2000-06-21, 03:23:00,VALID,916.786,VALID,0,VALID,98.8215,VALID,0,VALID,19.7238,VALID,169,VALID,0.684696,
2000-06-21, 03:24:00,VALID,916.781,VALID,0,VALID,98.8584,VALID,-0.0339617,VALID,19.7102,VALID,184,VALID,0.649777,
2000-06-21, 03:25:00,VALID,916.782,VALID,0,VALID,98.8876,VALID,-0.0509425,VALID,19.7238,VALID,195,VALID,0.446368,
2000-06-21, 03:26:00,VALID,916.778,VALID,0.2,VALID,98.8927,VALID,-0.0169808,VALID,19.7171,VALID,201,VALID,0.427232,
2000-06-21, 03:27:00,VALID,916.761,VALID,0,VALID,98.8889,VALID,0,VALID,19.7109,VALID,207,VALID,0.585069,
2000-06-21, 03:28:00,VALID,916.757,VALID,0,VALID,98.8863,VALID,-0.0339617,VALID,19.6977,VALID,221,VALID,0.390842,
2000-06-21, 03:29:00,VALID,916.738,VALID,0,VALID,98.9143,VALID,-0.0169808,VALID,19.7012,VALID,223,VALID,0.34158,
2000-06-21, 03:30:00,VALID,916.73,VALID,0,VALID,98.927,VALID,-0.0169808,VALID,19.7107,VALID,227,VALID,0.145148,
2000-06-21, 03:31:00,VALID,916.702,VALID,0,VALID,98.9092,VALID,-0.0339617,VALID,19.7047,VALID,229,VALID,0.513889,
2000-06-21, 03:32:00,VALID,916.684,VALID,0,VALID,98.9232,VALID,-0.0509425,VALID,19.6843,VALID,239,VALID,0.517578,
2000-06-21, 03:33:00,VALID,916.65,VALID,0,VALID,98.9461,VALID,-0.0169808,VALID,19.7077,VALID,240,VALID,0.0743189,
2000-06-21, 03:34:00,VALID,916.632,VALID,0.2,VALID,98.9601,VALID,-0.0509425,VALID,19.7072,VALID,240,VALID,0,
2000-06-21, 03:35:00,VALID,916.631,VALID,0,VALID,98.9817,VALID,0,VALID,19.7136,VALID,239,VALID,0,
2000-06-21, 03:36:00,VALID,916.608,VALID,0,VALID,98.9842,VALID,0,VALID,19.7298,VALID,226,VALID,0,
2000-06-21, 03:37:00,VALID,916.604,VALID,0,VALID,98.9715,VALID,-0.0679233,VALID,19.7305,VALID,206,VALID,0.078125,
2000-06-21, 03:38:00,VALID,916.585,VALID,0,VALID,98.9728,VALID,0,VALID,19.7276,VALID,169,VALID,0.424479,